Regional Weather Roundup
Issued by NWS

Home | Current Version | Previous Version | Text Only | Print | Product List | Glossary On
Versions: 1 2 3 4 5 6 7 8 9 10 11 12 13 14 15 16 17 18 19 20 21 22 23 24 25 26 27 28 29 30 31 32 33 34 35 36 37 38 39 40 41 42 43 44 45 46 47 48 49 50
000
ASUS46 KSEW 120410
RWRWA

WASHINGTON REGIONAL WEATHER ROUNDUP
NATIONAL WEATHER SERVICE SEATTLE WA
900 PM PDT FRI JUL 11 2014

NOTE:"FAIR" INDICATES FEW OR NO CLOUDS BELOW 12,000 FEET WITH NO
SIGNIFICANT WEATHER AND/OR OBSTRUCTIONS TO VISIBILITY.

WAZ505-507>509-120500-
SEATTLE, TACOMA, EVERETT, AND VICINITY

CITY           SKY/WX    TMP DP  RH WIND       PRES   REMARKS
EVERETT        CLEAR     73  55  53 N5        30.00R
BOEING FIELD   PTCLDY    82  51  34 NW3       29.96R
RENTON         PTCLDY    81  55  40 NW3       29.95R
SEATAC AIRPORT PTCLDY    81  52  36 N6        29.99R
JBLM-MCCHORD   MOCLDY    82  58  43 W5        29.97R
PUYALLUP       FAIR      72  59  64 CALM      29.99R
JBLM-FT LEWIS  MOCLDY    81  55  41 W7        29.97R
TACOMA NARROWS PTCLDY    79  56  45 CALM      29.97R
$$

WAZ001-503-506-510-514-515-120500-
NORTH INTERIOR

CITY           SKY/WX    TMP DP  RH WIND       PRES   REMARKS
BELLINGHAM     CLEAR     72  58  61 S6        29.96R
FRIDAY HARBOR  CLEAR     57  51  80 CALM      29.98R
EASTSOUND      CLEAR     72  54  53 S7        29.94S
PORT ANGELES   CLEAR     64  53  67 NW3       30.00R
NAS WHIDBEY    PTCLDY    63  53  70 SW6       30.00R
BURLINGTON     CLEAR     68  54  60 SW5       29.98R
$$

WAZ020-022-039-040-504-511-512-120500-
SOUTHWEST INTERIOR

CITY           SKY/WX    TMP DP  RH WIND       PRES   REMARKS
SHELTON        PTCLDY    76  56  49 SW9       29.96R
OLYMPIA        MOCLDY    80  56  43 W3        29.97R
CHEHALIS       FAIR      79  61  53 CALM      29.98R
KELSO          MOCLDY    70  57  64 NW5       30.03R
VANCOUVER      CLOUDY    82  57  42 CALM      29.95R
SCAPPOOSE, OR  MOCLDY    79  58  48 N7        29.95R
PORTLAND, OR   CLOUDY    81  60  48 E3        29.96R
$$

WAZ021-516-517-120500-
WASHINGTON COAST

CITY           SKY/WX    TMP DP  RH WIND       PRES   REMARKS
FORKS            N/A     61  58  90 CALM      30.01S FOG
HOQUIAM        CLOUDY    58  56  93 SW10      30.04R
ASTORIA, OR    CLOUDY    58  56  93 W6        30.04R
$$

WAZ019-023-024-040-518-519-120500-
CASCADE MOUNTAINS AND COLUMBIA GORGE

CITY           SKY/WX    TMP DP  RH WIND       PRES   REMARKS
STAMPEDE PASS  NOT AVBL
TROUTDALE, OR  CLOUDY    79  64  60 SE3       29.95R
THE DALLES, OR MOCLDY    81  50  33 NW14      29.90R
$$

WAZ026-027-041>044-520-521-120500-
EAST SLOPES

CITY           SKY/WX    TMP DP  RH WIND       PRES   REMARKS
OMAK           CLEAR     81  35  19 NW7       29.93R
WENATCHEE      PTCLDY    91  36  14 E8        29.91R
ELLENSBURG     PTCLDY    82  49  31 NW14      29.96R
YAKIMA         PTCLDY    81  51  35 NW5       29.91R
$$

WAZ028-034-035-120500-
COLUMBIA BASIN

CITY           SKY/WX    TMP DP  RH WIND       PRES   REMARKS
EPHRATA        PTCLDY    85  32  15 SW6       29.92R
MOSES LAKE     PTCLDY    90  38  16 SW6       29.92R
HANFORD        NOT AVBL
PASCO          MOCLDY    81  59  47 NW6       29.87R
HERMISTON, OR  MOCLDY    75  58  55 E3        29.87S
$$

WAZ036>038-120500-
NORTHEAST WASHINGTON

CITY           SKY/WX    TMP DP  RH WIND       PRES   REMARKS
SPOKANE GEIGER PTCLDY    86  38  18 E7        30.00R
SPOKANE FELTS  PTCLDY    78  45  30 NE3       29.98R
FAIRCHILD AFB  PTCLDY    80  43  26 E7        30.01R
COEURDALENE,ID PTCLDY    79  50  36 NE5       30.00R
DEER PARK      CLEAR     71  51  49 NE3       30.00R
$$

WAZ029>033-120500-
SOUTHEAST WASHINGTON

CITY           SKY/WX    TMP DP  RH WIND       PRES   REMARKS
PULLMAN        PTCLDY    70  49  47 CALM      30.02R
LEWISTON, ID   MOCLDY    90  42  18 NE8       29.92R
WALLA WALLA    PTCLDY    86  49  27 SE8       29.93R
PENDLETON, OR  PTCLDY    79  27  14 N5        29.93R
$$


USA.gov is the U.S. government's official web portal to all federal, state and local government web resources and services.